Location: Chariton
(41.0140°N, 93.3060°W)
Time: 05:23:41
(UTC-05:00)

Hubble Space Telescope - Visible Passes

Search period start: 20 April 2018 00:00
Search period end: 30 April 2018 00:00
Orbit: 537 x 541 km, 28.5° (Epoch: 19 April)

Date Brightness Start Highest point End Pass type
(mag) Time Alt. Az. Time Alt. Az. Time Alt. Az.
27 Apr 3.0 21:45:47 10° SSW 21:46:36 12° SSW 21:46:36 12° SSW visible
28 Apr 2.8 21:35:12 10° SSW 21:37:05 14° S 21:37:05 14° S visible
29 Apr 2.7 21:24:42 10° SSW 21:26:57 14° S 21:27:29 14° S visible
